Please be sure to check the latest weather conditions by clicking the link and viewing our local weather information!

Check Weather

Welcome to Lakeway Airpark (3R9)

FromTheAir

We’re a community airpark nestled within the town of Lakeway, Texas (17 miles northwest of downtown Austin).

Lakeway Airpark, Inc. was formed by Lakeway residents and interested parties to own and manage Lakeway Airpark (3R9).

The Airpark is a privately owned not for profit public use airport for residents and guests of Lakeway. No public funds are used and the airport is supported by fees and fuel sales at the airport.

Lakeway Airpark is an unmanned facility open for use from Sunrise to Sunset seven days a week. Takeoffs and landings are not permitted at night, between Sunset and Sunrise, by City Ordinance.

Quick Weather Info

Available data for KAUS from the past 2 hours
AUSTIN, TX
Metar
KAUS 200653Z 20008KT 10SM CLR 27/24 A2992 RMK AO2 SLP117 T02670239 VISNO RWY17R $

06:53 UTC

Wind: 200° 8kt

Visibility: 10 SM

Sky:

Temp: 27 deg C / 80.6 deg F

Dewpoint: 24 deg C / 75.2 deg F

Pressure: 29.92 inHg

TAF
KAUS 200522Z 2006/2112 18011KT P6SM FEW250 FM201200 20005KT P6SM SCT010 FM201500 17013KT P6SM FEW250